This is the latest recevied weather packets stored in our database for station/object DB0NU-15. If no packets are shown the sender has not sent any weather packets the latest 10 day(s).
| Time | Temp. | Humidity | Pressure | Rain* | Wind** | Luminosity | Snow |
|---|---|---|---|---|---|---|---|
| 1777663230 | 16.67° C | 42% | 1025.9 hPa | 0 mm | - | - | - |
| 1777662627 | 17.22° C | 42% | 1026 hPa | 0 mm | - | - | - |
| 1777662024 | 17.22° C | 41% | 1026 hPa | 0 mm | - | - | - |
| 1777661420 | 17.22° C | 41% | 1026 hPa | 0 mm | - | - | - |
| 1777660817 | 17.22° C | 42% | 1025.9 hPa | 0 mm | - | - | - |
| 1777660274 | 17.22° C | 41% | 1025.9 hPa | 0 mm | - | - | - |
| 1777659670 | 17.78° C | 41% | 1026 hPa | 0 mm | - | - | - |
| 1777659067 | 17.78° C | 41% | 1026 hPa | 0 mm | - | - | - |
| 1777658464 | 18.33° C | 39% | 1026.1 hPa | 0 mm | - | - | - |
| 1777657860 | 18.33° C | 39% | 1025.9 hPa | 0 mm | - | - | - |
| 1777657256 | 18.89° C | 38% | 1026 hPa | 0 mm | - | - | - |
| 1777656653 | 18.89° C | 38% | 1026 hPa | 0 mm | - | - | - |
| 1777656049 | 18.89° C | 38% | 1026 hPa | 0 mm | - | - | - |
| 1777655446 | 18.89° C | 38% | 1026 hPa | 0 mm | - | - | - |
| 1777654843 | 19.44° C | 38% | 1026 hPa | 0 mm | - | - | - |
| 1777654239 | 19.44° C | 36% | 1026.1 hPa | 0 mm | - | - | - |
| 1777653636 | 19.44° C | 36% | 1026.2 hPa | 0 mm | - | - | - |
| 1777653033 | 19.44° C | 36% | 1026.3 hPa | 0 mm | - | - | - |
| 1777652429 | 19.44° C | 37% | 1026.1 hPa | 0 mm | - | - | - |
| 1777651826 | 19.44° C | 36% | 1026.4 hPa | 0 mm | - | - | - |
| 1777651222 | 20° C | 36% | 1026.5 hPa | 0 mm | - | - | - |
| 1777650016 | 19.44° C | 36% | 1026.6 hPa | 0 mm | - | - | - |
| 1777649473 | 20° C | 35% | 1026.7 hPa | 0 mm | - | - | - |
| 1777648869 | 20.56° C | 35% | 1026.8 hPa | 0 mm | - | - | - |
| 1777648266 | 21.11° C | 35% | 1026.9 hPa | 0 mm | - | - | - |
* Rain latest hour (hover to see other rain measurements)
** Current wind speed in m/s (hover to see current wind gust speed)